EW8138 Weather Reports


time (UTC)temp
F
wind
direction
speed
knots
gust
knots
rain 1hr
in
rain 24hr
in
rain mn
in
humidity
%
barometer
mb
20260504014505 49 199 0.0 0.0 0.00 0.00 0.00 75 1012.1
20260504013003 49 203 0.0 0.0 0.00 0.00 0.00 75 1012.0
20260504011600 50 202 0.0 0.0 0.00 0.00 0.00 74 1011.9
20260504010123 50 205 0.0 0.0 0.00 0.00 0.00 74 1011.9
20260504004559 50 198 0.0 0.0 0.00 0.00 0.00 73 1012.0
20260504003057 50 209 0.0 0.0 0.00 0.00 0.00 71 1012.1
20260504001610 50 206 0.0 7.8 0.00 0.00 0.00 69 1012.2
20260504000105 51 223 0.0 13.9 0.00 0.00 0.00 67 1012.5
20260503234555 51 224 2.6 18.2 0.00 0.00 0.00 65 1012.8
20260503233054 52 250 7.0 19.1 0.00 0.00 0.00 62 1012.7
20260503231555 54 271 4.3 12.2 0.00 0.00 0.00 57 1012.8
20260503230059 57 267 0.0 13.9 0.00 0.00 0.00 49 1012.5
20260503224553 58 238 0.0 6.1 0.00 0.00 0.00 44 1012.1
20260503223051 59 236 0.0 6.1 0.00 0.00 0.00 42 1012.2
20260503221551 59 212 0.0 5.2 0.00 0.00 0.00 41 1012.3
20260503220049 59 238 0.9 9.6 0.00 0.00 0.00 41 1012.4
20260503214554 59 270 0.0 15.6 0.00 0.00 0.00 41 1012.5
20260503213117 60 232 0.0 15.6 0.00 0.00 0.00 40 1012.6
20260503211613 60 248 0.0 10.4 0.00 0.00 0.00 40 1012.6
20260503210044 60 240 4.3 15.6 0.00 0.00 0.00 41 1012.8
20260503204558 60 220 2.6 15.6 0.00 0.00 0.00 39 1012.9
20260503203041 60 224 0.0 16.5 0.00 0.00 0.00 42 1013.1
20260503201540 60 231 0.0 16.5 0.00 0.00 0.00 41 1013.3
20260503200037 60 248 5.2 18.2 0.00 0.00 0.00 41 1013.4
20260503194535 60 244 0.0 8.7 0.00 0.00 0.00 43 1013.5
20260503193033 60 286 0.9 15.6 0.00 0.00 0.00 38 1013.7
20260503191533 61 247 0.0 16.5 0.00 0.00 0.00 41 1014.1
20260503190029 60 216 3.5 18.2 0.00 0.00 0.00 40 1014.3
20260503184527 60 214 3.5 17.4 0.00 0.00 0.00 44 1014.6
20260503183024 59 207 3.5 18.2 0.00 0.00 0.00 44 1014.8
20260503181520 59 294 0.0 19.1 0.00 0.00 0.00 42 1015.0
20260503180028 59 197 3.5 23.5 0.00 0.00 0.00 41 1015.1
20260503174521 59 275 5.2 17.4 0.00 0.00 0.00 40 1015.2
20260503173016 59 234 0.0 17.4 0.00 0.00 0.00 43 1015.4
20260503171518 59 221 8.7 18.2 0.00 0.00 0.00 41 1015.6
20260503081536 32 300 0.0 0.0 0.00 0.00 0.00 90 1016.6
20260503071528 32 300 0.0 0.0 0.00 0.00 0.00 89 1016.8
20260503054517 34 300 0.0 0.0 0.00 0.00 0.00 85 1017.0
20260503053005 34 300 0.0 0.0 0.00 0.00 0.00 84 1017.0
20260503051501 35 300 0.0 0.0 0.00 0.00 0.00 83 1016.9
20260503050103 35 300 0.0 0.0 0.00 0.00 0.00 83 1016.9
20260503044557 36 300 0.0 0.0 0.00 0.00 0.00 82 1016.9
20260503043057 37 300 0.0 0.0 0.00 0.00 0.00 82 1016.8
20260503041551 38 300 0.0 0.0 0.00 0.00 0.00 82 1016.7
20260503040048 38 300 0.0 0.0 0.00 0.00 0.00 82 1016.8
20260503034552 39 300 0.0 0.0 0.00 0.00 0.00 81 1016.9
20260503033057 39 300 0.0 0.0 0.00 0.00 0.00 81 1017.0
20260503031547 39 300 0.0 0.0 0.00 0.00 0.00 81 1017.1
20260503030048 40 300 0.0 0.0 0.00 0.00 0.00 79 1017.1
20260503024550 40 300 0.0 0.0 0.00 0.00 0.00 79 1017.1
20260503023049 40 300 0.0 0.0 0.00 0.00 0.00 76 1017.2
20260503021544 41 300 0.0 0.0 0.00 0.00 0.00 73 1017.3
20260503020047 41 300 0.0 0.0 0.00 0.00 0.00 71 1017.2